Temperature
13 14 14 13 13 13 14 14 14 14 14 13 13 13 13 13 13 13 13 13 13 13 13 12 13 12 12 12 12 12 12 12 12 12 12 12 12 12 12 12 12 12 12
13 13 13 13 13 13 13 13 13 13 13 13 13 13 13 13 13 13 13 13 12 12 12 12 12 12 12 12 12 12 12 12 12 12 12 12 12 12 12 12 11 11 11
13 13 13 13 13 13 13 13 13 13 13 13 13 13 13 13 13 13 13 12 12 12 12 12 12 12 12 12 12 12 12 12 12 12 11 11 11 11 11 11 11 11 11
13 12 13 13 13 13 13 13 13 13 13 13 13 13 13 13 13 12 12 12 12 12 12 12 12 12 12 12 12 11 11 11 11 11 11 11 11 11 11 11 11 10 10
12 12 12 12 12 12 12 12 12 13 13 13 13 13 13 12 12 12 12 12 12 12 11 11 11 11 11 11 11 11 11 11 11 11 11 11 11 11 11 10 10 10 10
12 12 12 12 12 12 12 12 12 12 12 12 12 12 12 12 12 12 12 11 11 11 11 11 11 11 11 11 11 11 10 10 10 10 10 10 10 10 10 10 10 10 10
11 12 12 11 12 12 12 12 12 12 12 12 12 12 12 12 12 11 11 11 11 11 11 11 10 10 10 10 10 10 10 10 10 10 10 10 10 10 10 10 10 10 9
11 11 11 11 11 11 11 11 11 11 12 12 11 11 11 11 11 11 11 11 11 10 10 10 10 10 10 10 10 10 10 10 10 9 9 10 10 9 9 9 9 9 9
11 11 11 11 11 11 11 11 11 11 11 11 11 11 11 10 10 10 10 10 10 10 10 10 10 10 10 10 10 10 9 9 9 9 9 9 9 9 9 9 9 9 9
10 11 10 10 10 11 11 11 11 11 11 11 10 10 10 10 10 10 10 10 10 10 10 10 10 10 9 9 9 9 9 9 9 9 9 9 9 9 8 9 9 9 9
10 10 10 10 10 10 10 10 10 10 10 10 10 10 10 10 10 9 9 10 10 10 10 9 9 9 9 9 9 9 9 9 9 9 9 9 8 8 8 8 8 8 8
9 10 10 10 10 9 9 9 10 10 10 10 9 9 9 9 9 9 9 9 9 10 9 9 9 9 9 9 8 8 8 8 8 8 8 8 8 8 8 8 8 8 8
9 9 9 9 9 9 9 9 9 9 9 9 9 9 9 9 9 9 9 8 8 9 9 9 8 8 8 8 8 8 8 8 8 8 8 8 8 8 8 8 8 8 8
9 8 8 8 9 9 9 9 9 9 9 9 9 8 8 8 8 8 8 8 7 7 8 8 8 8 7 7 7 7 7 7 7 7 7 7 7 7 7 7 7 7 7
8 8 8 8 8 8 8 8 8 8 8 8 8 8 8 8 8 8 8 7 7 6 7 7 7 7 7 7 7 7 7 7 6 7 7 7 7 7 7 7 7 7 7
8 8 8 7 7 7 8 8 8 8 8 8 8 8 8 8 8 7 7 7 7 7 6 6 7 7 6 6 6 6 6 6 6 6 6 6 6 6 6 6 6 6 6
7 7 7 7 7 7 7 7 7 7 7 7 7 7 7 7 7 7 7 7 6 6 6 6 6 6 6 6 6 6 6 6 6 5 5 5 5 5 5 5 6 6 6
7 7 7 6 6 6 7 7 7 7 7 7 7 7 7 7 7 7 7 6 6 6 6 6 6 6 6 5 5 5 5 5 5 5 5 5 5 5 5 5 5 5 5
6 6 6 6 6 6 6 6 6 6 6 6 6 6 6 6 6 6 6 6 6 6 5 5 5 5 5 5 5 5 5 5 5 5 4 4 4 4 4 4 4 5 5
5 5 6 5 5 5 6 6 6 6 5 5 6 6 6 6 6 6 5 5 5 5 5 5 5 5 5 4 4 4 5 5 4 4 4 4 4 4 4 4 4 4 4
5 5 5 5 5 5 5 5 5 5 5 5 5 5 5 5 5 5 5 5 5 5 4 4 4 4 4 4 4 4 4 4 4 4 4 4 4 4 4 3 3 3 4
5 5 5 5 5 4 4 4 4 4 4 4 4 4 4 4 4 4 5 4 4 4 4 4 4 3 3 3 3 3 3 3 3 3 3 4 3 3 3 3 3 3 3
4 4 4 4 4 4 4 4 4 4 4 4 4 4 4 4 4 4 4 4 4 4 4 3 3 3 3 3 3 3 2 2 2 2 2 3 3 3 3 3 3 2 2
3 3 3 3 3 3 3 3 3 3 3 3 3 3 3 3 3 3 3 3 3 3 3 3 3 3 2 2 2 2 2 2 2 2 2 2 2 2 2 2 2 2 2
3 3 3 3 3 2 2 3 3 3 3 3 3 3 3 3 3 3 3 3 3 3 3 2 2 2 2 2 2 1 1 1 1 1 1 1 1 1 2 2 2 2 1
2 2 2 2 2 2 2 2 2 2 2 2 2 2 2 2 2 2 2 2 2 2 2 2 2 2 1 1 1 1 1 0 0 0 1 0 0 0 0 1 1 1 1
Wind_Speed
4 4 3 3 3 4 3 3 2 3 2 2 2 3 2 2 2 2 2 2 2 2 2 1 1 1 1 2 2 2 2 2 2 2 2 2 3 4 4 4 3 2 2
5 4 4 3 3 3 3 3 2 3 2 2 1 2 2 2 2 2 2 2 2 2 2 2 2 2 2 3 2 3 3 3 3 3 3 3 3 3 4 3 3 3 3
6 5 4 3 3 4 4 3 2 2 2 1 1 1 1 2 2 2 2 1 1 1 2 2 2 2 3 3 3 3 3 3 3 3 3 4 4 4 4 4 4 4 4
7 6 4 3 4 4 3 2 2 1 2 1 1 1 1 1 1 2 2 1 1 0 1 1 2 2 3 4 4 4 4 3 3 3 4 4 5 5 5 5 4 4 4
7 6 4 3 4 3 2 2 2 2 2 1 1 1 1 1 1 1 1 1 1 1 0 2 2 3 3 4 4 4 4 4 4 4 4 4 5 5 5 5 5 5 5
6 5 4 4 4 3 3 2 2 1 2 2 1 1 1 1 1 1 0 1 1 1 1 2 2 3 3 4 4 4 4 5 4 4 4 5 5 6 6 6 6 6 6
5 5 3 3 3 3 4 3 2 2 1 2 2 2 2 2 1 1 1 1 2 2 2 2 2 3 3 4 4 4 5 5 5 5 5 5 6 6 6 6 7 7 8
4 5 4 3 3 3 3 3 3 2 1 2 2 2 1 2 2 1 1 1 1 1 2 2 2 2 3 3 4 4 4 5 6 5 6 6 6 7 7 7 7 7 8
3 4 5 4 3 4 3 4 4 4 3 1 2 3 3 2 1 1 1 1 1 0 1 2 2 2 2 3 3 3 4 5 6 6 6 7 7 7 7 8 8 9 9
3 3 3 4 4 3 4 4 4 3 4 3 1 1 2 3 2 1 2 1 1 1 1 2 2 3 2 2 3 4 4 4 5 6 7 7 7 8 8 7 8 9 9
2 2 3 3 3 3 3 4 4 4 4 4 3 2 2 2 1 2 2 2 2 1 1 1 1 2 2 2 3 4 4 4 5 6 6 7 8 8 8 8 8 9 8
0 1 2 2 2 3 4 4 4 5 4 4 3 3 3 2 2 2 2 2 2 2 1 1 1 1 2 3 3 4 4 5 5 6 7 7 7 7 7 8 8 8 8
0 1 1 1 2 2 3 3 4 4 4 5 4 3 3 3 2 2 2 2 1 1 1 1 1 1 2 3 4 5 5 5 6 7 7 7 8 8 8 8 8 8 9
1 1 1 1 0 1 2 3 3 3 3 3 4 4 3 3 3 3 3 2 1 1 1 2 1 1 1 3 4 5 5 6 6 7 7 8 8 8 8 8 8 9 9
1 1 1 1 1 1 1 2 2 3 3 3 3 4 3 2 3 2 3 4 4 3 3 2 1 1 1 3 5 5 5 6 6 7 7 7 7 8 8 8 8 9 9
0 1 1 1 1 1 1 2 1 2 3 2 2 3 3 2 2 2 3 3 3 3 3 2 2 2 2 3 5 5 5 6 7 6 7 7 7 7 8 8 8 9 9
1 1 1 1 1 1 1 2 1 2 2 2 2 3 3 3 3 3 3 2 3 3 4 3 2 1 1 2 3 5 5 5 6 7 7 7 6 7 8 8 8 9 9
1 1 1 1 1 1 2 2 2 2 3 3 3 3 3 2 3 3 3 3 3 3 3 4 2 1 2 2 2 2 4 4 5 7 7 7 6 7 8 8 8 9 9
1 1 1 2 2 2 2 2 3 2 3 3 4 4 4 3 3 3 4 3 3 2 2 3 3 2 2 2 2 2 3 3 5 5 6 6 6 7 8 8 9 9 9
1 1 1 2 2 2 3 3 3 3 3 3 4 4 4 5 5 5 4 4 3 3 2 3 3 2 2 2 1 2 3 3 3 4 5 5 6 7 7 8 9 9 9
1 1 1 2 2 2 3 3 3 3 3 3 4 4 4 5 6 5 4 4 4 4 3 3 3 2 2 2 3 2 3 4 3 2 2 3 4 4 6 8 8 9 9
1 1 2 2 2 2 3 4 3 3 4 4 4 4 4 5 5 6 6 6 6 6 5 4 3 4 4 4 3 2 2 3 3 2 2 4 2 3 5 6 9 10 9
1 1 2 2 3 3 3 3 3 3 4 4 4 4 4 4 5 4 5 6 6 8 8 6 6 6 5 5 3 3 3 4 5 3 2 4 3 4 5 8 10 10 10
1 2 2 3 3 4 4 4 3 2 3 4 5 5 5 5 5 5 4 4 4 5 6 5 6 6 6 5 6 5 4 3 3 3 2 4 3 4 4 6 9 9 9
2 2 2 3 4 4 4 4 3 2 3 4 4 5 5 6 7 7 5 5 4 4 5 6 7 7 8 8 5 2 2 2 4 3 2 2 2 3 4 4 6 7 8
3 3 3 3 4 4 5 5 4 2 3 3 3 4 6 7 8 8 6 5 6 5 3 2 3 4 4 6 7 5 5 4 3 3 3 2 2 2 3 3 3 4 5
Wind_Direction
150 139 133 132 130 129 123 116 124 125 114 112 130 145 152 161 167 181 205 213 212 215 218 235 238 252 280 294 298 311 316 315 316 306 303 295 285 273 271 274 279 291 293
151 148 147 143 136 137 136 136 137 145 138 133 136 144 153 155 163 169 191 205 223 230 243 266 276 270 280 287 297 307 311 301 301 296 299 302 301 295 281 279 279 283 289
155 151 156 160 154 143 128 119 109 124 134 142 152 148 151 158 164 166 173 186 208 252 266 283 299 303 306 297 295 298 305 307 307 298 298 298 295 294 290 279 277 282 283
160 153 159 169 157 139 127 142 147 141 143 151 169 185 168 165 166 171 157 156 169 229 281 298 305 304 304 302 299 298 304 315 313 305 302 300 298 294 288 281 281 285 287
165 158 163 163 152 141 145 163 150 157 162 168 182 146 107 137 159 144 133 133 133 127 345 329 332 320 313 314 312 314 317 319 321 317 305 298 301 296 290 283 284 289 289
166 155 152 151 151 154 159 160 155 156 152 156 141 83 55 41 91 109 135 106 90 69 35 4 3 350 345 338 340 341 334 333 331 328 325 313 310 303 293 283 285 286 288
161 149 149 150 151 168 173 164 154 149 126 119 94 50 24 34 63 64 66 89 63 58 53 32 29 14 358 353 352 349 344 340 335 334 330 320 319 313 299 290 287 286 286
161 155 153 164 161 159 162 163 149 145 136 117 118 114 38 354 348 10 25 91 58 64 55 35 31 8 354 359 350 347 343 342 335 330 328 318 314 308 302 294 295 292 289
160 153 159 162 170 167 171 175 166 152 164 158 129 132 142 211 281 324 344 5 7 55 23 26 21 353 355 2 351 346 343 331 325 322 321 320 316 307 303 299 298 298 298
144 149 156 167 176 180 178 181 174 161 156 164 146 95 127 150 157 283 304 322 349 5 341 2 2 357 5 19 6 1 355 345 327 326 327 324 319 312 302 306 306 303 303
144 152 161 170 186 191 192 182 167 167 167 166 164 154 108 81 112 165 244 292 329 319 326 331 353 4 11 27 20 9 1 354 349 336 331 326 325 321 313 310 307 305 300
25 171 177 185 193 197 200 191 183 177 179 172 171 170 165 161 174 171 210 229 267 291 319 326 352 12 24 39 31 15 3 352 345 338 336 335 337 334 322 314 311 308 302
338 262 184 204 208 209 203 188 180 186 182 178 185 191 189 183 174 173 181 209 255 299 316 322 313 358 29 40 26 16 2 354 344 339 338 337 338 337 330 319 315 312 310
217 219 108 86 170 196 196 177 184 187 178 185 196 195 194 194 184 182 176 176 228 285 289 272 306 313 7 13 3 356 345 343 342 343 337 333 335 334 331 330 323 317 315
178 126 103 100 98 102 136 150 183 186 174 189 205 201 199 199 192 194 184 179 181 224 246 246 255 282 317 333 333 333 326 326 332 335 336 335 334 333 332 332 330 328 326
151 138 140 158 152 140 118 128 141 164 172 189 192 195 199 196 192 190 190 196 193 201 236 229 236 259 280 299 314 317 312 315 321 324 328 329 327 325 324 325 327 325 322
175 170 176 164 166 163 162 153 162 170 176 188 190 196 213 194 192 195 190 191 196 194 235 265 255 268 254 271 307 312 314 311 312 317 319 322 320 319 319 321 323 322 321
218 200 182 173 191 186 184 176 184 183 193 201 200 196 220 200 199 199 192 198 202 199 210 249 279 282 268 260 275 293 308 307 305 308 309 312 312 314 318 319 319 318 317
214 208 180 194 207 205 198 198 196 197 206 215 209 205 217 199 208 206 197 200 204 206 200 221 261 274 281 273 291 296 295 300 308 308 303 310 311 314 316 316 317 315 314
196 216 216 218 217 216 209 204 199 203 211 223 222 216 217 210 212 209 203 204 200 198 197 210 247 263 272 276 266 285 302 303 302 304 304 308 310 314 314 313 313 311 309
209 217 222 230 221 216 217 206 199 204 213 226 231 222 220 223 220 218 211 204 196 201 204 218 243 265 268 261 257 258 279 300 293 281 297 299 304 306 307 309 307 305 304
216 202 223 222 223 236 244 231 214 209 217 223 232 233 230 232 237 241 233 218 205 203 208 216 238 244 250 246 248 252 273 296 290 276 293 290 280 284 287 292 298 302 301
238 236 231 227 231 245 263 258 242 217 220 228 231 233 243 241 238 229 239 238 231 230 222 213 224 234 234 229 224 245 248 255 263 262 279 280 275 276 279 286 294 297 298
243 240 240 237 238 255 267 266 262 228 225 234 233 229 229 239 232 226 224 230 232 236 235 226 220 227 230 223 214 223 239 263 278 264 232 265 275 273 284 285 290 295 298
252 245 237 234 237 256 267 265 266 232 237 245 240 232 229 231 242 240 226 231 245 254 259 251 248 245 245 243 230 203 219 255 280 267 220 228 265 285 285 279 285 297 303
252 256 247 243 236 243 259 266 265 231 240 253 254 248 246 245 245 243 225 222 238 246 235 254 259 256 246 239 237 218 209 227 257 262 222 209 247 296 299 276 279 299 307
Height
1518 1520 1522 1524 1525 1527 1528 1530 1532 1533 1534 1535 1537 1538 1539 1540 1541 1542 1542 1543 1544 1544 1544 1545 1545 1544 1544 1544 1544 1544 1544 1544 1544 1544 1544 1543 1543 1542 1542 1542 1541 1541 1540
1516 1518 1520 1522 1523 1525 1526 1528 1530 1531 1532 1534 1535 1536 1537 1538 1539 1540 1541 1541 1542 1542 1543 1543 1543 1543 1543 1542 1542 1542 1542 1542 1542 1541 1541 1541 1540 1540 1540 1539 1539 1538 1538
1513 1516 1517 1519 1521 1523 1524 1526 1528 1529 1530 1531 1533 1534 1535 1536 1537 1538 1539 1539 1540 1540 1541 1541 1540 1540 1540 1540 1540 1540 1540 1539 1539 1539 1538 1538 1538 1538 1537 1537 1536 1536 1536
1511 1513 1515 1517 1519 1520 1522 1524 1525 1526 1527 1529 1530 1532 1533 1534 1535 1536 1537 1537 1538 1538 1539 1538 1538 1538 1538 1538 1538 1537 1537 1537 1536 1536 1536 1535 1535 1535 1535 1534 1534 1533 1533
1509 1510 1512 1514 1516 1518 1520 1521 1523 1524 1525 1527 1528 1529 1531 1532 1533 1534 1534 1535 1535 1536 1536 1536 1536 1536 1536 1535 1535 1535 1534 1534 1534 1533 1533 1533 1532 1532 1532 1531 1531 1530 1530
1506 1508 1510 1511 1513 1515 1517 1518 1520 1521 1522 1524 1526 1527 1528 1530 1530 1531 1532 1532 1533 1533 1533 1533 1533 1533 1533 1533 1533 1532 1532 1532 1531 1531 1531 1530 1530 1529 1529 1528 1528 1528 1527
1504 1505 1507 1509 1510 1512 1514 1515 1517 1519 1520 1522 1523 1525 1526 1527 1528 1529 1529 1530 1530 1531 1531 1531 1531 1531 1531 1530 1530 1530 1529 1529 1529 1528 1528 1527 1527 1527 1526 1526 1525 1525 1524
1501 1503 1504 1506 1508 1509 1511 1512 1514 1516 1517 1518 1520 1522 1523 1526 1525 1526 1527 1527 1528 1528 1528 1528 1528 1528 1528 1528 1528 1527 1527 1526 1526 1525 1525 1525 1524 1524 1523 1523 1522 1522 1521
1498 1500 1501 1503 1505 1506 1507 1509 1511 1512 1514 1515 1517 1519 1520 1521 1522 1523 1524 1525 1525 1526 1526 1526 1526 1526 1525 1525 1525 1524 1524 1523 1523 1522 1522 1521 1521 1520 1520 1519 1519 1518 1518
1496 1498 1499 1501 1502 1504 1505 1506 1507 1509 1510 1512 1514 1516 1518 1518 1519 1520 1521 1522 1522 1523 1523 1523 1523 1523 1522 1522 1522 1521 1521 1520 1520 1519 1519 1518 1518 1517 1516 1516 1515 1514 1514
1493 1495 1496 1498 1500 1501 1502 1503 1504 1506 1507 1509 1510 1512 1514 1515 1516 1517 1517 1518 1519 1519 1520 1520 1520 1520 1519 1519 1519 1518 1518 1517 1516 1516 1515 1515 1514 1513 1513 1512 1511 1511 1510
1491 1493 1494 1495 1497 1498 1499 1500 1502 1503 1504 1506 1508 1509 1510 1511 1513 1514 1514 1514 1514 1516 1517 1517 1517 1517 1516 1516 1516 1515 1515 1514 1513 1513 1512 1511 1510 1510 1509 1508 1507 1507 1506
1488 1490 1491 1492 1493 1495 1496 1497 1499 1500 1501 1502 1504 1506 1508 1508 1510 1511 1512 1511 1511 1512 1512 1513 1514 1514 1513 1513 1513 1512 1512 1511 1510 1509 1509 1508 1507 1506 1505 1504 1503 1502 1502
1486 1487 1487 1489 1490 1491 1492 1493 1495 1496 1498 1499 1501 1503 1504 1505 1506 1507 1508 1508 1508 1508 1508 1509 1510 1510 1510 1510 1509 1509 1508 1508 1507 1506 1505 1504 1503 1502 1501 1500 1499 1498 1497
1484 1484 1484 1486 1487 1488 1489 1490 1491 1492 1494 1496 1497 1498 1500 1501 1502 1503 1504 1505 1506 1504 1504 1505 1506 1506 1506 1506 1506 1505 1504 1504 1503 1502 1501 1500 1499 1498 1497 1496 1495 1494 1493
1481 1481 1482 1483 1485 1485 1486 1486 1487 1489 1490 1492 1493 1494 1495 1497 1498 1499 1500 1501 1501 1502 1501 1501 1502 1502 1502 1502 1502 1501 1501 1500 1499 1498 1497 1496 1495 1494 1493 1492 1491 1490 1489
1478 1478 1479 1480 1481 1482 1483 1483 1484 1485 1486 1487 1489 1490 1491 1492 1493 1495 1496 1496 1497 1497 1496 1496 1497 1497 1497 1497 1497 1497 1496 1495 1495 1494 1493 1492 1491 1490 1489 1488 1487 1485 1484
1474 1475 1475 1476 1477 1478 1479 1480 1481 1481 1482 1483 1485 1486 1486 1487 1489 1490 1491 1491 1492 1492 1492 1491 1492 1493 1493 1493 1493 1492 1492 1491 1490 1489 1489 1488 1486 1485 1485 1484 1482 1481 1480
1471 1472 1473 1473 1474 1475 1476 1476 1477 1478 1478 1479 1480 1481 1482 1483 1484 1485 1486 1486 1487 1488 1488 1488 1487 1488 1488 1488 1488 1488 1487 1487 1486 1485 1484 1483 1482 1481 1480 1479 1478 1477 1475
1468 1468 1469 1470 1470 1471 1472 1472 1473 1473 1474 1475 1476 1477 1478 1478 1479 1480 1480 1481 1482 1483 1483 1483 1483 1483 1483 1483 1483 1482 1482 1482 1481 1480 1480 1479 1478 1477 1475 1474 1473 1472 1471
1464 1464 1465 1465 1466 1467 1467 1468 1468 1469 1470 1471 1472 1472 1473 1474 1474 1475 1476 1476 1477 1478 1478 1478 1478 1478 1478 1478 1478 1478 1477 1476 1476 1475 1474 1474 1473 1472 1471 1469 1468 1467 1466
1460 1460 1460 1461 1461 1462 1463 1463 1464 1464 1465 1466 1467 1467 1468 1469 1470 1470 1471 1471 1472 1472 1473 1473 1473 1473 1473 1474 1474 1473 1472 1471 1470 1471 1469 1468 1468 1467 1466 1464 1463 1462 1460
1455 1455 1456 1456 1456 1457 1458 1459 1460 1460 1460 1461 1461 1462 1463 1464 1465 1465 1465 1466 1467 1467 1468 1469 1468 1468 1469 1469 1469 1468 1468 1467 1466 1465 1464 1462 1462 1461 1460 1459 1458 1456 1455
1451 1451 1451 1451 1452 1453 1454 1454 1455 1455 1456 1456 1456 1457 1458 1458 1459 1460 1460 1460 1461 1462 1462 1463 1463 1463 1464 1464 1464 1464 1463 1462 1461 1460 1460 1457 1456 1455 1454 1453 1452 1451 1450
1446 1446 1447 1447 1448 1448 1450 1450 1450 1451 1451 1451 1451 1452 1452 1453 1454 1454 1454 1454 1455 1456 1457 1457 1457 1458 1458 1458 1458 1458 1457 1456 1454 1454 1454 1453 1451 1449 1448 1447 1447 1446 1445
1442 1442 1442 1443 1443 1444 1445 1445 1446 1446 1445 1445 1446 1446 1447 1447 1448 1448 1449 1449 1448 1449 1450 1450 1451 1451 1452 1452 1452 1452 1452 1451 1449 1448 1448 1448 1446 1445 1442 1441 1441 1441 1439